Home   Weather   Kolonia   Past weeks

Flag for Micronesia Past Weather in Kolonia, Pohnpei, Micronesia — Yesterday and Last 2 Weeks

Now
84 °F

Mostly cloudy.


Feels Like: 93 °F
Forecast: 81 / 86 °F
Wind: 9 mph from East

Location: Pohnpei

Current Time: Feb 24, 2017 at 2:40:38 pm

Latest Report: Feb 24, 2017 at 1:51 pm


Visibility: 15 mi

Pressure: 29.86 "Hg

Humidity: 78%

Dew Point: 76 °F

Location of KoloniaLocation

Past Weather in Kolonia — Graph

°F

Kolonia Temperature Yesterday

Maximum temperature yesterday: 89 °F (at 1:52 pm)
Minimum temperature yesterday: 79 °F (at 12:57 am)
Average temperature yesterday: 83 °F

High & Low Weather Summary for the Past Weeks

 TemperatureHumidityPressure
High89 °F (Feb 11, 12:51 pm)96% (Feb 13, 5:52 am)29.98 "Hg (Feb 13, 5:52 am)
Low76 °F (Feb 12, 6:52 am)61% (Feb 9, 12:53 pm)29.73 "Hg (Feb 9, 2:53 pm)
Average82 °F80%29.88 "Hg
* Reported Feb 9 12:53 pm — Feb 24 12:54 pm, Kolonia, Weather by CustomWeather, © 2017

Note: Actual official high and low records may vary slightly from our data, if they occured in-between our weather recording intervals... More about our weather records

Advertising

Kolonia Weather History for the Previous 24 Hours

Scroll right to see more
 ConditionsComfort  
Time TempWeatherWind HumidityBarometerVisibility
12:54 pm
Fri, Feb 24
80 °FMostly cloudy.6 mph91%29.89 "Hg15 mi
11:52 am78 °FSprinkles. Mostly cloudy.10 mph86%29.93 "Hg13 mi
10:50 am82 °FMostly cloudy.12 mph84%29.96 "Hg15 mi
9:51 am82 °FMostly cloudy.14 mph84%29.96 "Hg15 mi
8:55 am81 °FMostly cloudy.12 mph83%29.95 "Hg15 mi
7:56 am82 °FMostly cloudy.12 mph77%29.93 "Hg15 mi
7:26 am82 °FMostly cloudy.12 mph79%29.91 "Hg15 mi
6:54 am81 °FCloudy.8 mph83%29.89 "Hg15 mi
5:55 am79 °FMostly cloudy.12 mph87%29.88 "Hg15 mi
4:52 am82 °FOvercast.8 mph81%29.87 "Hg15 mi
3:54 am83 °FOvercast.9 mph81%29.87 "Hg15 mi
2:57 am83 °FOvercast.8 mph82%29.87 "Hg15 mi
1:50 am82 °FOvercast.13 mph82%29.89 "Hg15 mi
12:55 am83 °FOvercast.12 mph81%29.90 "Hg15 mi
11:54 pm
Thu, Feb 23
83 °FOvercast.9 mph82%29.91 "Hg15 mi
10:52 pm82 °FOvercast.10 mph84%29.92 "Hg15 mi
9:53 pm83 °FOvercast.7 mph84%29.91 "Hg15 mi
9:30 pm82 °FPartly cloudy.7 mph84%29.91 "Hg15 mi
8:53 pm82 °FMostly cloudy.10 mph84%29.90 "Hg15 mi
7:54 pm82 °FMostly cloudy.12 mph84%29.89 "Hg15 mi
6:53 pm82 °FMostly cloudy.6 mph84%29.87 "Hg15 mi
5:53 pm81 °FMore clouds than sun.5 mph88%29.86 "Hg15 mi
4:53 pm85 °FMostly cloudy.9 mph74%29.84 "Hg15 mi
4:15 pm86 °FMostly cloudy.6 mph75%29.83 "Hg15 mi
2:53 pm85 °FBroken clouds.7 mph74%29.83 "Hg15 mi
Weather by CustomWeather, © 2017

See weather overviewHow to use our weather pages